Voltar ao catálogo

STARLINK-4468

AtivoComunicaçõesVLEO
NORAD 53969·PAYLOAD·🇺🇸 United States

Lançado Oct 5, 2022 de Vandenberg Space Force Base

Loading…

Próximas Passagens (próximas 24 horas)

TLE

AtualizadoSource: CelesTrak SupGP

Época: Sep 14, 2026, 21:46 UTC

1 53969C 22125F   26257.90743056  .00014052  00000+0  42636-3 0  2572
2 53969  53.1578  87.7146 0000867  81.5670  83.6824 15.33544654    16

Acompanhe STARLINK-4468 em tempo real com AllMySat

Download on the App Store